Group_ship,Cruise,JD_GMT,Date_DDMMYYYY,TIME_HH:MM:SS,Lat_dec_degree,Long_dec_degree,xCO2eq_ppm,xCO2a_ppm,Pres_Equi_hPa,Pres_sealevel_hPa,EqTemp_C,SST(TSG)_C,Sal(TSG)_Permil,Water_flow_l/min,Gasflow_IR_ml/min,Temp_IR_C,Pres_IR_hPa,Ship_heading_true_degree,Ship_speed_knot,Wind_dir_rel_degree,Wind_speed_rel_m/s,fCO2W@SST_uatm,Qcflag_water,fCO2a_uatm,Qcflag_air,dfCO2_uatm,Fluoro_ug/l,Wind_speed_true_m/s,Wind_dir_true_degree,Air_temp_C,Oxygen
AOML_Explorer,Ex0506E,38.00973,7022005,0:14:01,25.968,-79.709,356.46,-9,1021.15,1017.65,24.78,24.95,36.277,1.06,76.24,30.57,1021.15,51.5,23.6,344,22.65,349.55,2,-9,9,-9,0.3,11.34,20.76,21.11,-9
AOML_Explorer,Ex0506E,38.01151,7022005,0:16:34,25.978,-79.694,356.95,-9,1021.3,1017.63,24.79,24.96,36.295,1.01,76.51,30.59,1021.3,52,23.6,344,22.65,349.99,2,-9,9,-9,0.31,11.28,22.26,21.03,-9
AOML_Explorer,Ex0506E,38.01328,7022005,0:19:07,25.988,-79.679,357.54,-9,1021.12,1017.68,24.81,24.97,36.304,1.04,76.8,30.6,1021.12,56.3,23.4,339,24.19,350.39,2,-9,9,-9,0.31,13.44,19.7,20.77,-9
AOML_Explorer,Ex0506E,38.01505,7022005,0:21:40,25.997,-79.664,358.15,-9,1020.94,1017.68,24.82,24.99,36.337,1,76.53,30.6,1020.94,56.9,23.3,338,24.71,351.12,2,-9,9,-9,0.25,14.19,18.04,20.91,-9
AOML_Explorer,Ex0506E,38.01682,7022005,0:24:13,26.006,-79.649,358.68,-9,1020.94,1017.91,24.84,25.05,36.382,1.03,76.15,30.61,1020.94,58.7,23.3,342,25.22,352.11,2,-9,9,-9,0.28,14.11,28.64,20.94,-9
AOML_Explorer,Ex0506E,38.01859,7022005,0:26:46,26.014,-79.633,359,-9,1021.05,1017.66,24.88,25.08,36.468,1.06,76.43,30.61,1021.05,63.2,23.3,335,23.68,352.36,2,-9,9,-9,0.33,13.55,18.95,20.82,-9
AOML_Explorer,Ex0506E,38.02036,7022005,0:29:19,26.021,-79.616,359.39,-9,1021.18,1017.92,24.93,25.08,36.489,0.99,76.69,30.62,1021.18,63.4,23.2,340,24.19,352.13,2,-9,9,-9,0.33,13.43,28.12,20.88,-9
AOML_Explorer,Ex0506E,38.02213,7022005,0:31:52,26.029,-79.6,360.55,-9,1021.13,1017.66,24.93,25.06,36.498,1.02,76.7,30.62,1021.13,63.2,23.4,341,24.19,352.95,2,-9,9,-9,0.33,13.25,29.36,20.92,-9
AOML_Explorer,Ex0506E,38.0239,7022005,0:34:25,26.036,-79.584,361.51,-9,1021.32,1017.94,24.93,25.05,36.499,1.03,76.1,30.62,1021.32,63.6,23.3,337,22.65,353.81,2,-9,9,-9,0.34,12.35,20.53,20.79,-9
AOML_Explorer,Ex0506E,38.02567,7022005,0:36:58,26.044,-79.567,362.06,-9,1021.34,1017.68,24.92,25.09,36.515,1.03,76.28,30.63,1021.34,63.5,23.3,346,23.16,355.08,2,-9,9,-9,0.34,11.78,37.44,20.88,-9
AOML_Explorer,Ex0506E,38.02744,7022005,0:39:31,26.051,-79.551,362.31,-9,1021.24,1017.92,24.93,25.09,36.534,1.04,76.55,30.63,1021.24,63.2,23.2,339,23.16,355.06,2,-9,9,-9,0.35,12.6,24.71,20.81,-9
AOML_Explorer,Ex0506E,38.02921,7022005,0:42:04,26.059,-79.535,362.91,-9,1021.26,1017.66,24.95,25.07,36.527,1.01,76.02,30.63,1021.26,63.1,23.2,338,22.65,355.21,2,-9,9,-9,0.35,12.29,21.41,20.92,-9
AOML_Explorer,Ex0506E,38.03098,7022005,0:44:37,26.066,-79.519,363.55,-9,1021.29,1017.93,24.93,25.07,36.521,1.05,76.4,30.63,1021.29,63.8,23.1,344,24.19,356.01,2,-9,9,-9,0.34,13.13,34.18,20.77,-9
AOML_Explorer,Ex0506E,38.03276,7022005,0:47:10,26.074,-79.502,363.7,-9,1021.47,1017.66,24.93,25.09,36.536,1.07,76.57,30.63,1021.47,63,23.2,337,24.19,356.63,2,-9,9,-9,0.32,13.93,21.32,20.95,-9
AOML_Explorer,Ex0506E,38.03453,7022005,0:49:43,26.081,-79.486,363.81,-9,1021.56,1018.2,24.94,24.97,36.491,1.06,76.6,30.63,1021.56,63.1,22.8,335,24.19,354.94,2,-9,9,-9,0.34,14.34,18.92,20.7,-9
AOML_Explorer,Ex0506E,38.0363,7022005,0:52:16,26.088,-79.47,363.79,-9,1021.24,1018.22,24.87,24.92,36.472,1.05,75.98,30.63,1021.24,63.7,22.6,333,23.16,355.16,2,-9,9,-9,0.33,13.78,14.86,20.85,-9
AOML_Explorer,Ex0506E,38.03807,7022005,0:54:49,26.096,-79.455,362.79,-9,1021.46,1017.92,24.81,24.93,36.434,1.01,76.35,30.63,1021.46,63.2,22.5,337,24.19,355.14,2,-9,9,-9,0.38,14.19,22.71,20.61,-9
AOML_Explorer,Ex0506E,38.03984,7022005,0:57:22,26.103,-79.439,361.98,-9,1021.22,1018.2,24.78,25,36.488,1.05,76.43,30.64,1021.22,63.7,22.6,336,23.68,355.68,2,-9,9,-9,0.37,13.9,19.55,20.75,-9
AOML_Explorer,Ex0506E,38.04161,7022005,0:59:55,26.11,-79.423,361.69,-9,1021.46,1017.66,24.84,24.96,36.507,1.03,76.13,30.63,1021.46,63.4,22.6,337,23.16,354.15,2,-9,9,-9,0.35,13.25,20.42,20.78,-9
AOML_Explorer,Ex0506E,38.0514,7022005,1:14:01,26.149,-79.334,360.35,-9,1021.71,1017.92,24.74,24.75,36.57,1.07,76.56,30.69,1021.71,65.2,22.6,338,23.68,351.53,2,-9,9,-9,0.28,13.82,21.81,20.74,-9
AOML_Explorer,Ex0506E,38.05494,7022005,1:19:07,26.163,-79.303,360.49,-9,1021.76,1018.45,24.48,24.47,36.71,1.05,76.7,30.71,1021.76,63.6,22.2,336,24.19,351.53,2,-9,9,-9,0.34,14.46,21.64,20.74,-9
AOML_Explorer,Ex0506E,38.05671,7022005,1:21:40,26.17,-79.287,360.49,-9,1021.76,1018.47,24.39,24.48,36.707,1.06,76.43,30.71,1021.76,64.2,22.2,333,24.19,352.91,2,-9,9,-9,0.34,14.93,16.84,20.74,-9
AOML_Explorer,Ex0506E,38.05848,7022005,1:24:13,26.177,-79.272,360.75,-9,1021.63,1018.75,24.38,24.49,36.703,1.08,76.62,30.71,1021.63,63.6,22.1,337,23.16,353.37,2,-9,9,-9,0.35,13.5,20.73,20.61,-9
AOML_Explorer,Ex0506E,38.06026,7022005,1:26:46,26.184,-79.256,360.71,-9,1021.68,1018.19,24.39,24.51,36.697,1.06,76.64,30.72,1021.68,63.6,22.1,342,23.68,353.48,2,-9,9,-9,0.34,13.32,29.66,20.61,-9
AOML_Explorer,Ex0506E,38.06203,7022005,1:29:19,26.191,-79.241,360.32,-9,1021.96,1018.46,24.4,24.51,36.7,1.1,76.72,30.72,1021.96,64,22.2,338,23.68,353.06,2,-9,9,-9,0.34,13.88,22.48,20.67,-9
AOML_Explorer,Ex0506E,38.0638,7022005,1:31:52,26.197,-79.225,360.03,-9,1021.65,1018.44,24.4,24.5,36.705,1.09,76.74,30.71,1021.65,67.9,22.2,333,24.71,352.47,2,-9,9,-9,0.34,15.5,20.4,20.56,-9
AOML_Explorer,Ex0506E,38.06557,7022005,1:34:25,26.203,-79.208,360.01,-9,1021.98,1018.44,24.4,24.5,36.704,1.07,76.26,30.71,1021.98,73.2,22.3,331,24.19,352.69,2,-9,9,-9,0.33,15.45,20.91,20.78,-9
AOML_Explorer,Ex0506E,38.06734,7022005,1:36:58,26.207,-79.192,360.11,-9,1021.8,1018.46,24.4,24.5,36.705,1.1,76.68,30.71,1021.8,74.1,22.2,336,23.16,352.71,2,-9,9,-9,0.33,13.81,27.09,20.56,-9
AOML_Explorer,Ex0506E,38.06911,7022005,1:39:31,26.211,-79.175,360.09,-9,1021.75,1018.19,24.39,24.5,36.706,1.1,76.71,30.71,1021.75,74.4,22.2,323,21.1,352.75,2,-9,9,-9,0.34,14.27,4.36,20.7,-9
AOML_Explorer,Ex0506E,38.07088,7022005,1:42:04,26.216,-79.158,360.18,-9,1021.84,1018.19,24.39,24.53,36.709,1.1,76.74,30.7,1021.84,75.2,22.2,322,24.71,353.27,2,-9,9,-9,0.34,17.73,9.42,20.66,-9
AOML_Explorer,Ex0506E,38.07265,7022005,1:44:37,26.22,-79.141,360.26,-9,1021.97,1018.72,24.41,24.55,36.715,1.08,76.5,30.7,1021.97,76.8,22.2,326,22.13,353.38,2,-9,9,-9,0.29,14.57,13.01,20.62,-9
AOML_Explorer,Ex0506E,38.07442,7022005,1:47:10,26.223,-79.124,360.98,-9,1021.8,1018.21,24.43,24.47,36.716,1.1,76.59,30.7,1021.8,82.5,22.4,324,23.68,352.74,2,-9,9,-9,0.36,16.3,18.03,20.74,-9
AOML_Explorer,Ex0506E,38.07619,7022005,1:49:43,26.224,-79.106,361.65,-9,1021.64,1018.45,24.4,24.41,36.708,1.11,76.62,30.69,1021.64,86.3,22.5,331,23.68,352.93,2,-9,9,-9,0.39,14.99,32.24,20.5,-9
AOML_Explorer,Ex0506E,38.07796,7022005,1:52:16,26.224,-79.089,362.1,-9,1021.86,1018.72,24.34,24.4,36.698,1.13,76.76,30.69,1021.86,91,22.5,334,23.16,354.08,2,-9,9,-9,0.38,14.13,39.3,20.51,-9
AOML_Explorer,Ex0506E,38.07973,7022005,1:54:49,26.224,-79.071,361.97,-9,1021.72,1018.47,24.3,24.37,36.704,1.15,76.74,30.69,1021.72,90.2,22.6,325,23.16,354.11,2,-9,9,-9,0.37,15.68,25.48,20.58,-9
AOML_Explorer,Ex0506E,38.08151,7022005,1:57:22,26.224,-79.053,362.5,-9,1021.5,1018.19,24.29,24.35,36.704,1.15,76.45,30.69,1021.5,91.4,22.6,319,23.68,354.39,2,-9,9,-9,0.33,17.47,18.57,20.53,-9
AOML_Explorer,Ex0506E,38.08328,7022005,1:59:55,26.224,-79.036,362.78,-9,1021.33,1018.72,24.26,24.39,36.669,1.15,76.65,30.68,1021.33,91.3,22.5,318,22.65,355.57,2,-9,9,-9,0.37,16.51,17.4,20.76,-9
AOML_Explorer,Ex0506E,38.09307,7022005,2:14:01,26.222,-78.938,358.67,-9,1021.64,1018.19,24.4,24.46,36.677,1.18,76.93,30.72,1021.64,95.6,22.7,317,24.19,350.77,2,-9,9,-9,0.37,18.19,21.67,20.56,-9
AOML_Explorer,Ex0506E,38.09484,7022005,2:16:34,26.22,-78.921,358.89,-9,1021.67,1018.44,24.36,24.43,36.699,1.19,76.74,30.73,1021.67,100.8,22.8,321,20.59,351.15,2,-9,9,-9,0.4,14.33,24.73,20.67,-9
AOML_Explorer,Ex0506E,38.09661,7022005,2:19:07,26.216,-78.903,359.34,-9,1021.49,1018.74,24.35,24.39,36.689,1.17,76.91,30.73,1021.49,105.1,23,322,21.1,351.19,2,-9,9,-9,0.38,14.63,30.38,20.76,-9
AOML_Explorer,Ex0506E,38.09838,7022005,2:21:40,26.212,-78.886,360.09,-9,1021.55,1018.19,24.31,24.3,36.699,1.18,76.85,30.73,1021.55,104.6,23,319,22.13,351.14,2,-9,9,-9,0.42,16.23,27.45,20.74,-9
AOML_Explorer,Ex0506E,38.10015,7022005,2:24:13,26.208,-78.868,360.29,-9,1021.79,1018.45,24.25,24.16,36.735,1.2,76.99,30.73,1021.79,104.8,23,326,22.13,350.58,2,-9,9,-9,0.44,14.78,36.85,20.75,-9
AOML_Explorer,Ex0506E,38.10192,7022005,2:26:46,26.204,-78.851,360.35,-9,1021.6,1018.75,24.15,23.98,36.774,1.21,76.95,30.73,1021.6,103,23.1,329,21.1,349.55,2,-9,9,-9,0.41,13.36,36.28,20.77,-9
AOML_Explorer,Ex0506E,38.10546,7022005,2:31:52,26.195,-78.816,360.88,-9,1021.51,1018.47,23.69,23.63,36.786,1.4,77.05,30.72,1021.51,106.9,22.6,317,20.07,351.71,2,-9,9,-9,0.37,14.98,24.14,20.69,-9
AOML_Explorer,Ex0506E,38.10723,7022005,2:34:25,26.19,-78.8,360.39,-9,1021.43,1018.45,23.62,23.64,36.785,1.38,76.83,30.72,1021.43,106.3,22.4,311,21.1,352.27,2,-9,9,-9,0.37,16.98,19.83,20.74,-9
AOML_Explorer,Ex0506E,38.10901,7022005,2:36:58,26.186,-78.783,359.79,-9,1021.18,1018.21,23.61,23.62,36.781,1.38,76.81,30.71,1021.18,105.9,22.4,314,20.07,351.52,2,-9,9,-9,0.34,15.48,20.86,20.62,-9
AOML_Explorer,Ex0506E,38.11078,7022005,2:39:31,26.182,-78.766,359.67,-9,1021.07,1017.93,23.59,23.64,36.775,1.4,76.76,30.71,1021.07,106.8,22.5,309,22.13,351.83,2,-9,9,-9,0.32,18.27,19.76,20.72,-9
AOML_Explorer,Ex0506E,38.11255,7022005,2:42:04,26.177,-78.749,358.94,-9,1021.25,1017.94,23.6,23.65,36.772,1.41,76.94,30.7,1021.25,106.8,22.4,315,21.62,351.27,2,-9,9,-9,0.32,16.54,25.98,20.64,-9
AOML_Explorer,Ex0506E,38.11432,7022005,2:44:37,26.173,-78.732,358.28,-9,1021.11,1017.94,23.6,23.66,36.772,1.37,76.88,30.69,1021.11,106.7,22.5,311,22.13,350.59,2,-9,9,-9,0.33,17.87,21.63,20.7,-9
AOML_Explorer,Ex0506E,38.11609,7022005,2:47:10,26.168,-78.715,357.85,-9,1021.04,1017.66,23.61,23.66,36.773,1.41,77.06,30.69,1021.04,106.8,22.5,311,23.16,350.09,2,-9,9,-9,0.3,18.72,23.7,20.74,-9
AOML_Explorer,Ex0506E,38.11786,7022005,2:49:43,26.164,-78.698,357.73,-9,1021.58,1018.2,23.62,23.66,36.777,1.42,76.95,30.68,1021.58,107.2,22.7,318,22.13,349.99,2,-9,9,-9,0.33,16.31,30.31,20.78,-9
AOML_Explorer,Ex0506E,38.11963,7022005,2:52:16,26.159,-78.681,357.81,-9,1021.33,1017.94,23.62,23.66,36.775,1.42,76.89,30.68,1021.33,106.6,22.6,314,22.13,349.99,2,-9,9,-9,0.34,17.2,25.06,20.73,-9
AOML_Explorer,Ex0506E,38.1214,7022005,2:54:49,26.154,-78.664,357.78,-9,1021.26,1018.19,23.61,23.64,36.781,1.42,76.89,30.67,1021.26,110.2,22.8,312,20.59,349.76,2,-9,9,-9,0.33,16.22,23.65,20.86,-9
AOML_Explorer,Ex0506E,38.12317,7022005,2:57:22,26.149,-78.647,357.66,-9,1021.32,1018.2,23.6,23.62,36.781,1.44,77.06,30.66,1021.32,111.4,22.8,317,20.07,349.62,2,-9,9,-9,0.32,14.59,30.18,20.81,-9
AOML_Explorer,Ex0506E,38.12494,7022005,2:59:55,26.142,-78.63,357.31,-9,1021.25,1018.47,23.58,23.62,36.785,1.42,76.81,30.66,1021.25,112.3,22.9,315,20.07,349.44,2,-9,9,-9,0.35,15.16,27.9,20.79,-9
AOML_Explorer,Ex0506E,38.13473,7022005,3:14:01,26.105,-78.539,356.56,-9,1020.86,1017.38,23.51,23.54,36.791,1.41,77.13,30.7,1020.86,114.8,23.4,306,22.65,348.45,2,-9,9,-9,0.35,19.03,25.42,20.8,-9
AOML_Explorer,Ex0506E,38.13651,7022005,3:16:34,26.098,-78.523,356.65,-9,1021.15,1017.66,23.5,23.55,36.789,1.41,77.02,30.7,1021.15,116,23.4,305,22.13,348.98,2,-9,9,-9,0.31,18.87,24.57,20.77,-9
AOML_Explorer,Ex0506E,38.13828,7022005,3:19:07,26.091,-78.506,356.86,-9,1021,1017.38,23.5,23.54,36.798,1.4,77.04,30.71,1021,116,23.3,304,22.65,348.97,2,-9,9,-9,0.35,19.52,24.54,20.8,-9
AOML_Explorer,Ex0506E,38.14005,7022005,3:21:40,26.084,-78.49,357.21,-9,1021.19,1018.21,23.5,23.56,36.783,1.35,77.11,30.71,1021.19,112.3,23.3,313,20.07,349.69,2,-9,9,-9,0.36,15.39,25.74,20.74,-9
AOML_Explorer,Ex0506E,38.14182,7022005,3:24:13,26.078,-78.472,357.49,-9,1020.87,1017.91,23.51,23.58,36.788,1.35,76.98,30.71,1020.87,108,23.2,304,22.13,349.95,2,-9,9,-9,0.36,19.03,16.14,20.81,-9
AOML_Explorer,Ex0506E,38.14359,7022005,3:26:46,26.074,-78.455,357.28,-9,1020.86,1017.66,23.53,23.58,36.789,1.39,77.13,30.71,1020.86,108.3,23.3,312,23.16,349.5,2,-9,9,-9,0.39,18.18,26.58,20.77,-9
AOML_Explorer,Ex0506E,38.14536,7022005,3:29:19,26.069,-78.438,357.66,-9,1021.03,1017.96,23.53,23.58,36.786,1.39,76.9,30.71,1021.03,107.6,23.2,310,19.04,349.92,2,-9,9,-9,0.37,15.06,16.55,20.9,-9
AOML_Explorer,Ex0506E,38.14713,7022005,3:31:52,26.064,-78.42,357.84,-9,1021.06,1018.21,23.53,23.59,36.788,1.37,76.94,30.7,1021.06,107.5,23.2,315,19.56,350.12,2,-9,9,-9,0.34,14.44,22.73,20.96,-9
AOML_Explorer,Ex0506E,38.1489,7022005,3:34:25,26.059,-78.403,357.93,-9,1020.93,1017.94,23.54,23.58,36.791,1.36,77.21,30.7,1020.93,106.6,23.2,318,20.59,349.98,2,-9,9,-9,0.33,14.61,27.83,20.87,-9
AOML_Explorer,Ex0506E,38.15067,7022005,3:36:58,26.054,-78.385,358.33,-9,1020.88,1017.94,23.53,23.57,36.787,1.38,77.09,30.69,1020.88,106.2,23.2,315,19.04,350.36,2,-9,9,-9,0.39,13.97,20.47,20.94,-9
AOML_Explorer,Ex0506E,38.15244,7022005,3:39:31,26.051,-78.368,358.21,-9,1021.04,1018.22,23.53,23.59,36.786,1.39,76.98,30.69,1021.04,104.1,23.2,315,19.04,350.58,2,-9,9,-9,0.37,13.92,18.64,20.89,-9
AOML_Explorer,Ex0506E,38.15421,7022005,3:42:04,26.047,-78.35,358.04,-9,1021.07,1018.2,23.54,23.59,36.783,1.38,76.88,30.69,1021.07,103.6,23.2,319,18.01,350.29,2,-9,9,-9,0.37,12.26,19.79,20.96,-9
AOML_Explorer,Ex0506E,38.15598,7022005,3:44:37,26.043,-78.332,357.79,-9,1020.74,1017.67,23.54,23.59,36.787,1.38,76.97,30.69,1020.74,102.9,23.2,307,20.59,349.93,2,-9,9,-9,0.36,16.85,12.64,21.02,-9
AOML_Explorer,Ex0506E,38.15776,7022005,3:47:10,26.039,-78.314,357.66,-9,1020.57,1017.39,23.54,23.61,36.776,1.39,76.95,30.68,1020.57,103.7,23.2,309,21.62,350.05,2,-9,9,-9,0.36,17.29,17.26,20.96,-9
AOML_Explorer,Ex0506E,38.15953,7022005,3:49:43,26.035,-78.297,357.5,-9,1020.45,1017.69,23.55,23.62,36.781,1.39,77.15,30.67,1020.45,104,23,305,22.65,349.74,2,-9,9,-9,0.36,19,15.48,20.98,-9
AOML_Explorer,Ex0506E,38.1613,7022005,3:52:16,26.031,-78.279,357.27,-9,1020.42,1017.12,23.56,23.65,36.771,1.39,77.07,30.67,1020.42,103.8,22.9,309,24.19,349.7,2,-9,9,-9,0.33,19.48,22.16,20.93,-9
AOML_Explorer,Ex0506E,38.16307,7022005,3:54:49,26.028,-78.262,357.02,-9,1020.44,1017.38,23.58,23.65,36.775,1.39,76.9,30.66,1020.44,100.7,23,313,22.65,349.3,2,-9,9,-9,0.38,17.32,20.93,20.8,-9
AOML_Explorer,Ex0506E,38.16484,7022005,3:57:22,26.025,-78.244,357.43,-9,1020.28,1017.13,23.59,23.63,36.782,1.37,77.09,30.65,1020.28,101,22.9,306,22.65,349.24,2,-9,9,-9,0.38,18.74,13.93,20.96,-9
AOML_Explorer,Ex0506E,38.1764,7022005,4:14:01,26.003,-78.131,359.45,-9,1020.38,1017.37,24.04,24.01,36.751,1.38,77.41,30.65,1020.38,107.3,22.6,306,22.65,350.06,2,-9,9,-9,0.43,18.95,19.68,20.84,-9
AOML_Explorer,Ex0506E,38.17817,7022005,4:16:34,25.999,-78.114,360.01,-9,1020.71,1017.35,23.97,23.78,36.807,1.4,77.45,30.65,1020.71,106.5,22.4,304,22.13,348.66,2,-9,9,-9,0.31,18.65,17.69,20.76,-9
AOML_Explorer,Ex0506E,38.17994,7022005,4:19:07,25.993,-78.098,359.78,-9,1020.6,1017.38,23.83,23.78,36.758,1.37,77.42,30.65,1020.6,111.7,22.4,307,20.59,350.33,2,-9,9,-9,0.3,16.94,22.19,20.67,-9
AOML_Explorer,Ex0506E,38.18171,7022005,4:21:40,25.988,-78.081,359.63,-9,1020.5,1017.36,23.73,23.79,36.759,1.37,77.34,30.64,1020.5,112.6,22.3,304,20.07,351.59,2,-9,9,-9,0.3,17.06,19.54,20.75,-9
AOML_Explorer,Ex0506E,38.18348,7022005,4:24:13,25.981,-78.065,359.32,-9,1020.61,1017.38,23.73,23.8,36.756,1.39,77.39,30.64,1020.61,113.6,22.4,305,21.1,351.54,2,-9,9,-9,0.29,17.9,22.5,21.02,-9
AOML_Explorer,Ex0506E,38.18526,7022005,4:26:46,25.975,-78.049,359.09,-9,1020.63,1017.37,23.73,23.8,36.758,1.36,77.18,30.63,1020.63,110.9,22.3,311,21.62,351.34,2,-9,9,-9,0.3,17.25,26.38,20.81,-9
AOML_Explorer,Ex0506E,38.18703,7022005,4:29:19,25.97,-78.033,358.96,-9,1020.77,1017.11,23.74,23.8,36.756,1.36,77.13,30.63,1020.77,111.4,22.4,309,21.1,351.09,2,-9,9,-9,0.25,17.3,23.3,20.72,-9
AOML_Explorer,Ex0506E,38.1888,7022005,4:31:52,25.964,-78.016,358.97,-9,1020.41,1017.36,23.74,23.8,36.759,1.37,77.05,30.62,1020.41,111.5,22.5,308,21.1,351.01,2,-9,9,-9,0.22,17.49,22.25,20.77,-9
AOML_Explorer,Ex0506E,38.19057,7022005,4:34:25,25.958,-78,359.04,-9,1020.6,1017.37,23.74,23.8,36.758,1.4,77.12,30.61,1020.6,111.8,22.5,313,21.1,351.13,2,-9,9,-9,0.26,16.47,27.83,20.81,-9
AOML_Explorer,Ex0506E,38.19234,7022005,4:36:58,25.952,-77.983,359.02,-9,1020.55,1017.67,23.74,23.78,36.777,1.39,77.21,30.6,1020.55,110.4,22.6,311,20.07,350.81,2,-9,9,-9,0.28,15.86,22.88,20.91,-9
AOML_Explorer,Ex0506E,38.19411,7022005,4:39:31,25.947,-77.967,359.04,-9,1020.61,1017.66,23.73,23.74,36.774,1.37,77.33,30.6,1020.61,111.4,22.6,314,20.59,350.36,2,-9,9,-9,0.3,15.84,27.37,20.88,-9
AOML_Explorer,Ex0506E,38.19588,7022005,4:42:04,25.941,-77.95,359.39,-9,1020.61,1017.39,23.7,23.71,36.776,1.38,77.49,30.59,1020.61,111.1,22.5,313,20.59,350.91,2,-9,9,-9,0.31,15.96,26.54,20.81,-9
AOML_Explorer,Ex0506E,38.19765,7022005,4:44:37,25.935,-77.934,359.51,-9,1020.65,1017.64,23.67,23.65,36.791,1.4,77.31,30.58,1020.65,110.1,22.7,319,20.07,350.61,2,-9,9,-9,0.3,14.16,31.62,20.81,-9
AOML_Explorer,Ex0506E,38.19942,7022005,4:47:10,25.93,-77.917,359.31,-9,1020.66,1017.37,23.64,23.67,36.758,1.39,77.47,30.57,1020.66,110.2,22.6,316,21.1,351.13,2,-9,9,-9,0.33,15.45,31.65,20.7,-9
AOML_Explorer,Ex0506E,38.20119,7022005,4:49:43,25.925,-77.9,358.4,-9,1020.55,1017.37,23.61,23.7,36.76,1.38,77.37,30.56,1020.55,109.4,22.5,319,21.1,350.88,2,-9,9,-9,0.35,14.84,34.62,20.62,-9
AOML_Explorer,Ex0506E,38.20296,7022005,4:52:16,25.919,-77.884,357.43,-9,1020.44,1017.65,23.63,23.71,36.757,1.39,77.4,30.55,1020.44,109.5,22.6,313,20.07,349.74,2,-9,9,-9,0.32,15.25,25.2,20.83,-9
AOML_Explorer,Ex0506E,38.20473,7022005,4:54:49,25.914,-77.867,356.8,-9,1020.58,1017.36,23.65,23.72,36.759,1.38,77.22,30.54,1020.58,109.8,22.5,320,21.1,349.06,2,-9,9,-9,0.3,14.68,36.18,20.78,-9
AOML_Explorer,Ex0506E,38.20651,7022005,4:57:22,25.908,-77.851,356.68,-9,1020.3,1017.38,23.66,23.73,36.757,1.37,77.53,30.54,1020.3,112.5,22.5,314,19.56,348.88,2,-9,9,-9,0.31,14.63,28.32,20.91,-9
AOML_Explorer,Ex0506E,38.20828,7022005,4:59:55,25.902,-77.834,356.36,-9,1020.28,1017.35,23.67,23.74,36.752,1.37,77.81,30.53,1020.28,112.8,22.6,314,18.01,348.65,2,-9,9,-9,0.24,13.48,24.16,20.79,-9
AOML_Explorer,Ex0506E,38.21807,7022005,5:14:01,25.87,-77.743,355.78,-9,1020.09,1017.13,23.67,23.73,36.762,1.39,77.61,30.54,1020.09,111.6,22.7,312,18.53,347.71,2,-9,9,-9,0.28,14.54,20.82,20.77,-9
AOML_Explorer,Ex0506E,38.21984,7022005,5:16:34,25.864,-77.727,356.33,-9,1020.09,1016.82,23.68,23.69,36.774,1.36,77.61,30.54,1020.09,112.5,22.9,315,19.56,347.74,2,-9,9,-9,0.32,14.87,26.19,20.75,-9
AOML_Explorer,Ex0506E,38.22161,7022005,5:19:07,25.859,-77.71,357.01,-9,1020.05,1017.1,23.66,23.51,36.829,1.39,77.67,30.55,1020.05,111.4,22.3,311,20.07,346.24,2,-9,9,-9,0.31,15.85,24.53,20.8,-9
AOML_Explorer,Ex0506E,38.22338,7022005,5:21:40,25.853,-77.694,357,-9,1020.04,1016.82,23.52,23.63,36.771,1.37,77.83,30.55,1020.04,110,21.9,305,20.07,349.66,2,-9,9,-9,0.3,16.99,18.09,20.71,-9
AOML_Explorer,Ex0506E,38.22515,7022005,5:24:13,25.849,-77.678,356.63,-9,1019.91,1016.56,23.54,23.63,36.776,1.39,77.62,30.54,1019.91,105.7,22,306,20.07,348.95,2,-9,9,-9,0.31,16.45,16.34,20.67,-9
AOML_Explorer,Ex0506E,38.22692,7022005,5:26:46,25.844,-77.661,356.15,-9,1019.79,1016.84,23.57,23.66,36.767,1.39,77.68,30.54,1019.79,106.3,22.6,307,20.07,348.45,2,-9,9,-9,0.31,16.3,16.61,20.62,-9
AOML_Explorer,Ex0506E,38.22869,7022005,5:29:19,25.84,-77.644,356.1,-9,1019.86,1016.53,23.6,23.62,36.788,1.37,77.55,30.53,1019.86,105.9,23,305,19.04,347.59,2,-9,9,-9,0.28,15.93,11.27,20.68,-9
AOML_Explorer,Ex0506E,38.23223,7022005,5:34:25,25.831,-77.61,356.31,-9,1019.71,1016.57,23.4,23.3,36.835,1.38,77.49,30.53,1019.71,106.3,22.6,309,21.62,346.26,2,-9,9,-9,0.36,17.07,22.16,20.65,-9
AOML_Explorer,Ex0506E,38.23401,7022005,5:36:58,25.827,-77.593,355.37,-9,1019.89,1016.8,23.3,23.3,36.832,1.39,77.61,30.52,1019.89,106.4,22.5,307,18.53,346.78,2,-9,9,-9,0.34,15.08,13.41,20.56,-9
AOML_Explorer,Ex0506E,38.23578,7022005,5:39:31,25.822,-77.576,354.24,-9,1019.92,1016.54,23.28,23.31,36.835,1.39,77.69,30.52,1019.92,106.4,22.5,301,19.56,346.02,2,-9,9,-9,0.33,17.3,9.1,20.3,-9
AOML_Explorer,Ex0506E,38.23755,7022005,5:42:04,25.817,-77.559,353.65,-9,1019.83,1016.56,23.29,23.33,36.837,1.38,77.24,30.51,1019.83,107.1,22.6,310,20.59,345.64,2,-9,9,-9,0.31,16.24,20.84,20.27,-9
AOML_Explorer,Ex0506E,38.23932,7022005,5:44:37,25.813,-77.542,353.3,-9,1019.94,1016.8,23.3,23.36,36.836,1.38,77.32,30.51,1019.94,107.3,22.6,307,16.99,345.57,2,-9,9,-9,0.32,14.03,9.64,20.08,-9
AOML_Explorer,Ex0506E,38.24109,7022005,5:47:10,25.808,-77.525,353.46,-9,1019.92,1016.81,23.32,23.38,36.839,1.39,77.4,30.5,1019.92,107.5,22.7,302,16.99,345.61,2,-9,9,-9,0.32,15.08,5.16,20.13,-9
AOML_Explorer,Ex0506E,38.24286,7022005,5:49:43,25.803,-77.508,353.74,-9,1020.05,1017.1,23.34,23.39,36.837,1.37,77.3,30.5,1020.05,107.2,22.8,309,15.44,345.84,2,-9,9,-9,0.31,12.6,5.88,20.17,-9
AOML_Explorer,Ex0506E,38.24463,7022005,5:52:16,25.798,-77.491,353.95,-9,1019.71,1016.83,23.35,23.4,36.831,1.38,77.66,30.49,1019.71,107.5,22.9,305,16.99,345.96,2,-9,9,-9,0.29,14.56,7.01,20.26,-9
AOML_Explorer,Ex0506E,38.2464,7022005,5:54:49,25.794,-77.474,354.28,-9,1019.73,1016.01,23.36,23.42,36.828,1.38,77.8,30.49,1019.73,107,22.8,305,18.01,346.4,2,-9,9,-9,0.32,15.26,9.7,20.2,-9
AOML_Explorer,Ex0506E,38.24817,7022005,5:57:22,25.789,-77.457,354.52,-9,1019.61,1016.56,23.38,23.44,36.825,1.4,77.74,30.49,1019.61,107.3,22.8,311,19.56,346.6,2,-9,9,-9,0.32,15.3,18.99,19.94,-9
AOML_Explorer,Ex0506E,38.24994,7022005,5:59:55,25.784,-77.441,354.83,-9,1019.74,1016.26,23.4,23.45,36.824,1.39,77.65,30.48,1019.74,107.4,22.9,306,18.53,346.76,2,-9,9,-9,0.32,15.56,11.5,20.2,-9
AOML_Explorer,Ex0506E,38.25973,7022005,6:14:01,25.756,-77.346,354.24,-9,1019.5,1016.54,23.37,23.37,36.829,1.38,77.65,30.52,1019.5,108.3,23.1,314,16.99,345.45,2,-9,9,-9,0.29,12.85,14.91,20.28,-9
AOML_Explorer,Ex0506E,38.26151,7022005,6:16:34,25.751,-77.329,354.63,-9,1019.24,1015.98,23.34,23.34,36.83,1.4,77.78,30.52,1019.24,107.8,23,305,20.07,345.8,2,-9,9,-9,0.29,17.34,12.52,20.61,-9
AOML_Explorer,Ex0506E,38.26328,7022005,6:19:07,25.747,-77.312,354.86,-9,1019.11,1016,23.32,23.31,36.839,1.39,77.48,30.53,1019.11,105.5,22.8,307,20.07,345.83,2,-9,9,-9,0.3,16.87,12.71,20.78,-9
AOML_Explorer,Ex0506E,38.26505,7022005,6:21:40,25.742,-77.295,354.98,-9,1019.04,1015.74,23.3,23.26,36.835,1.4,77.9,30.53,1019.04,103,22.8,314,22.13,345.59,2,-9,9,-9,0.34,17.25,20.72,20.82,-9
AOML_Explorer,Ex0506E,38.26682,7022005,6:24:13,25.739,-77.278,355.25,-9,1018.98,1015.75,23.25,23.28,36.82,1.38,77.73,30.53,1018.98,103.2,22.8,310,20.59,346.72,2,-9,9,-9,0.34,16.74,14.06,20.95,-9
AOML_Explorer,Ex0506E,38.26859,7022005,6:26:46,25.735,-77.26,355.22,-9,1018.83,1015.76,23.24,23.3,36.83,1.35,77.82,30.53,1018.83,102.8,22.7,308,22.65,347.03,2,-9,9,-9,0.34,18.86,15.47,20.85,-9
AOML_Explorer,Ex0506E,38.27036,7022005,6:29:19,25.731,-77.243,354.65,-9,1018.89,1014.64,23.27,23.29,36.82,1.37,77.97,30.53,1018.89,103.1,22.4,300,22.65,345.99,2,-9,9,-9,0.35,20.54,8.01,20.82,-9
AOML_Explorer,Ex0506E,38.27213,7022005,6:31:52,25.728,-77.226,354.35,-9,1018.63,1015.2,23.27,23.44,36.785,1.08,77.81,30.53,1018.63,100.9,22.2,309,24.19,347.49,2,-9,9,-9,0.23,19.75,19.41,20.81,-9
AOML_Explorer,Ex0506E,38.2739,7022005,6:34:25,25.725,-77.209,354.19,-9,1018.67,1015.49,23.3,23.45,36.811,0.99,77.9,30.52,1018.67,102.4,21.9,309,23.16,347.14,2,-9,9,-9,0.24,19.04,18.66,20.94,-9
AOML_Explorer,Ex0506E,38.27567,7022005,6:36:58,25.722,-77.193,352.78,-9,1018.6,1016.02,23.41,23.47,36.812,0.94,77.68,30.52,1018.6,102.1,22.1,310,21.62,344.57,2,-9,9,-9,0.24,17.62,15.83,20.81,-9
AOML_Explorer,Ex0506E,38.27744,7022005,6:39:31,25.718,-77.176,351.14,-9,1018.68,1014.94,23.42,23.54,36.803,0.88,77.69,30.51,1018.68,102.7,22,309,22.65,343.63,2,-9,9,-9,0.23,18.79,16.96,20.86,-9
AOML_Explorer,Ex0506E,38.27921,7022005,6:42:04,25.715,-77.159,350.22,-9,1018.67,1015.78,23.45,23.59,36.835,0.87,77.52,30.51,1018.67,103.9,22,313,21.1,343.02,2,-9,9,-9,0.22,16.9,18.7,20.82,-9